Location: Antichan
(42.9728°N, 0.6667°E)
Time: 14:21:08
(UTC+00:00)

Cosmos 2360 Rocket - Pass Details

Date: 15 August 2020
Orbit: 834 x 845 km, 71.0° (Epoch: 24 September)

Event Time Altitude Azimuth Distance (km) Brightness Sun altitude
Rises 22:05:46 0° 332° (NNW) 3,412 6.6 -27.4°
Reaches altitude 10° 22:08:15 10° 330° (NNW) 2,472 5.6 -27.7°
Maximum altitude 22:13:51 64° 250° (WSW) 933 2.3 -28.2°
Enters shadow 22:13:53 64° 247° (WSW) 933 2.3 -28.2°
